Simultaneous Nadir Overpasses (SNOs) Predictions

Prediction of SNOs between GOES-16 and AQUA Satellite Orbit:

Table of predicted SNOs for the next 14.0 days since TLE Epoch: 4/17/2021
Index Date Time (GOES-16) GOES-16 Lat,Lon AQUA Lat,Lon Distance(km) Time Diff (sec)
1 04/18/2021 18:29:10 0.04, -75.19 0.44, -73.15 230.62 80
2 04/19/2021 06:50:25 -0.03, -75.20 0.66, -78.31 354.40 80
3 04/21/2021 06:38:14 -0.03, -75.19 0.00, -75.36 18.52 80
4 04/23/2021 06:23:22 -0.02, -75.19 -0.60, -72.39 317.94 80
5 04/23/2021 18:44:47 0.02, -75.18 -0.47, -77.59 273.73 80
6 04/25/2021 18:35:15 0.02, -75.19 0.14, -74.63 63.43 80
7 04/27/2021 18:23:03 0.02, -75.20 0.75, -71.67 400.88 80
8 04/28/2021 06:44:18 -0.02, -75.22 0.35, -76.83 183.37 80
9 04/30/2021 06:29:27 -0.02, -75.23 -0.33, -73.88 154.32 80
10 04/30/2021 18:50:50 0.02, -75.22 -0.80, -79.07 437.36 80
